Regional Weather Roundup
Issued by NWS Sioux Falls, SD

Home | Current Version | Previous Version | Graphics & Text | Print | Product List | Glossary On
Versions: 1 2 3 4 5 6 7 8 9 10 11 12 13 14 15 16 17 18 19 20 21 22 23 24 25 26 27 28 29 30 31 32 33 34 35 36 37 38 39 40 41 42 43 44 45 46 47 48 49 50
000
ASUS43 KFSD 191702
RWRFSD

WEATHER ROUNDUP FOR SE SOUTH DAKOTA/SW MINNESOTA/NW IOWA
NATIONAL WEATHER SERVICE SIOUX FALLS SD
1200 PM CDT FRI SEP 19 2014

NOTE: "FAIR" INDICATES FEW OR NO CLOUDS BELOW 12,000 FEET WITH NO
SIGNIFICANT WEATHER AND OR OBSTRUCTIONS TO VISIBILITY.


SDZ038>040-050-052>070-191800-
SOUTHEAST SOUTH DAKOTA

CITY           SKY/WX    TMP DP  RH WIND       PRES   REMARKS
CHAMBERLAIN    PTSUNNY   76  65  67 W7        29.71R
HURON          PTSUNNY   77  63  61 SW9       29.67F
MADISON        PTSUNNY   73  68  83 SW18G28   29.72R
MITCHELL       MOSUNNY   79  65  62 SW12      29.69S
SIOUX FALLS    MOSUNNY   78  64  61 S23G32    29.70F
WINNER         FAIR      82  61  48 W12       29.74S
YANKTON        SUNNY     79  64  61 SW20G26   29.72F
$$

MNZ071-072-080-081-089-090-097-098-191800-
SOUTHWEST MINNESOTA

CITY           SKY/WX    TMP DP  RH WIND       PRES   REMARKS
FAIRMONT       PTSUNNY   72  54  53 S26G33    29.79F
JACKSON        PTSUNNY   72  61  68 S22G28    29.78F
LUVERNE        MOSUNNY   73  63  68 S24G32    29.73F
MARSHALL       CLOUDY    70  61  73 SW17G23   29.69S
MONTEVIDEO     CLOUDY    66  63  88 W8        29.73R
PIPESTONE      PTSUNNY   72  63  73 SW23      29.71F
REDWOOD FALLS  CLOUDY    69  62  78 S16G28    29.71F
TRACY          MOSUNNY   71  63  76 S30G38    29.67F
WINDOM         CLOUDY    70  61  73 S18G31    29.74F
WORTHINGTON    PTSUNNY   70  63  78 S22G31    29.76F
$$

IAZ001>003-012>014-020>022-031-032-NEZ013-014-SDZ071-191800-
NORTHWEST IOWA

CITY           SKY/WX    TMP DP  RH WIND       PRES   REMARKS
CHEROKEE       SUNNY     73  65  76 S18G29    29.82F
DENISON        PTSUNNY   72  66  83 S20G26    29.87F
ESTHERVILLE    MOSUNNY   70  62  76 S24G35    29.79F
LE MARS        SUNNY     75  64  69 S23G35    29.78F
ORANGE CITY    MOSUNNY   73  63  68 S23G29    29.78F
SHELDON        MOSUNNY   72  64  78 S24G32    29.77F
SIOUX CITY     SUNNY     77  65  66 S17G25    29.81F
SPENCER        MOSUNNY   75  63  66 S23G31    29.80F
STORM LAKE     SUNNY     73  66  78 S17G28    29.85F
$$

ABBREVIATIONS USED IN REMARKS
   TC - TEMPERATURE IN CELSIUS
  WCI - WIND CHILL INDEX
   HX - HEAT INDEX
  VSB - VISIBILITY



USA.gov is the U.S. government's official web portal to all federal, state and local government web resources and services.